Date String (YYYY-MM-DD hh:mm:ss) UTC,Instrument flags,Ambient pressure (hPa),Sample flow (lpm),Bypass flow (lpm),Sample temperature (°C),Ambient temperature (°C),ASC tube jacket temperature (°C),LED temperature (°C),Box temperature (°C),Sample RH (%),Span deviation,Mass concentration (μg/m³),Mass concentration (μg/m³),Mass concentration (μg/m³)
DateTimeUTC,F1_M11,P_M11,Q1_M11,Q2_M11,T1_M11,T2_M11,T3_M11,T4_M11,T5_M11,U1_M11,ZSPAN_M11,X2_M11,X0_M11,X1_M11
2022-12-17 02:00:00,,0822.4,4.96,0.00,21.2,19.7,00.0,30.1,22.8,03.7,0000.0,0002.03,0005.38,0001.59
2022-12-17 02:01:00,,0822.4,5.03,0.00,21.2,20.1,00.0,30.1,22.9,03.7,0000.0,0001.94,0004.80,0001.57
2022-12-17 02:02:00,,0822.4,4.96,0.00,21.3,21.3,00.0,30.0,23.2,03.6,0000.0,0001.93,0004.74,0001.55
2022-12-17 02:03:00,,0822.4,5.00,0.00,21.5,21.8,00.0,30.1,23.4,03.6,0000.0,0001.95,0004.77,0001.55
2022-12-17 02:04:00,,0822.4,5.02,0.00,21.5,21.4,00.0,30.1,23.4,03.5,0000.0,0001.94,0004.80,0001.53
2022-12-17 02:05:00,,0822.5,4.96,0.00,21.5,21.0,00.0,30.2,23.3,03.5,0000.0,0001.93,0004.81,0001.51
2022-12-17 02:06:00,,0822.5,5.03,0.00,21.5,20.6,00.0,30.2,23.2,03.5,0000.0,0001.89,0004.72,0001.50
2022-12-17 02:07:00,,0822.5,4.97,0.00,21.4,20.3,00.0,30.2,23.1,03.5,0000.0,0001.88,0003.95,0001.47
2022-12-17 02:08:00,,0822.5,5.04,0.00,21.4,20.1,00.0,30.2,23.0,03.5,0000.0,0001.82,0003.42,0001.45
2022-12-17 02:09:00,,0822.4,4.97,0.00,21.3,19.9,00.0,30.2,23.0,03.4,0000.0,0001.82,0003.40,0001.45
2022-12-17 02:10:00,,0822.4,5.04,0.00,21.3,19.8,00.0,30.2,22.9,03.3,0000.0,0001.83,0004.13,0001.43
2022-12-17 02:11:00,,0822.4,4.97,0.00,21.3,20.0,00.0,30.2,22.9,03.3,0000.0,0001.85,0004.75,0001.42
2022-12-17 02:12:00,,0822.4,4.98,0.00,21.4,21.1,00.0,30.1,23.2,03.4,0000.0,0001.86,0004.78,0001.43
2022-12-17 02:13:00,,0822.5,5.03,0.00,21.5,21.8,00.0,30.1,23.4,03.4,0000.0,0001.83,0004.71,0001.44
2022-12-17 02:14:00,,0822.4,4.97,0.00,21.6,21.4,00.0,30.2,23.4,03.4,0000.0,0001.82,0004.67,0001.45
2022-12-17 02:15:00,,0822.4,5.03,0.00,21.5,21.0,00.0,30.2,23.3,03.5,0000.0,0001.83,0004.71,0001.46
2022-12-17 02:16:00,,0822.4,4.97,0.00,21.5,20.6,00.0,30.3,23.2,03.5,0000.0,0001.84,0005.56,0001.46
2022-12-17 02:17:00,,0822.4,5.03,0.00,21.4,20.3,00.0,30.3,23.1,03.4,0000.0,0001.85,0005.64,0001.47
2022-12-17 02:18:00,,0822.4,4.96,0.00,21.4,20.1,00.0,30.3,23.0,03.5,0000.0,0001.84,0005.63,0001.48
2022-12-17 02:19:00,,0822.5,5.03,0.00,21.4,19.8,00.0,30.3,22.9,03.5,0000.0,0001.92,0005.85,0001.51
2022-12-17 02:20:00,,0822.4,4.96,0.00,21.3,19.7,00.0,30.2,22.9,03.5,0000.0,0001.96,0005.94,0001.55
2022-12-17 02:21:00,,0822.4,5.04,0.00,21.3,19.9,00.0,30.2,22.9,03.5,0000.0,0002.00,0005.32,0001.59
2022-12-17 02:22:00,,0822.4,4.98,0.00,21.3,20.9,00.0,30.2,23.1,03.5,0000.0,0002.00,0003.99,0001.63
2022-12-17 02:23:00,,0822.4,5.00,0.00,21.5,21.9,00.0,30.2,23.4,03.5,0000.0,0002.02,0003.97,0001.64
2022-12-17 02:24:00,,0822.4,5.00,0.00,21.6,22.2,00.0,30.2,23.6,03.4,0000.0,0002.06,0004.03,0001.65
2022-12-17 02:25:00,,0822.4,4.99,0.00,21.6,21.6,00.0,30.3,23.5,03.4,0000.0,0002.07,0004.07,0001.66
2022-12-17 02:26:00,,0822.4,4.98,0.00,21.6,21.0,00.0,30.3,23.3,03.4,0000.0,0002.07,0004.02,0001.67
2022-12-17 02:27:00,,0822.4,5.06,0.00,21.5,20.6,00.0,30.3,23.2,03.4,0000.0,0002.05,0003.05,0001.68
2022-12-17 02:28:00,,0822.4,4.95,0.00,21.5,20.3,00.0,30.3,23.2,03.5,0000.0,0002.07,0003.08,0001.68
2022-12-17 02:29:00,,0822.4,5.04,0.00,21.5,20.1,00.0,30.3,23.1,03.5,0000.0,0002.11,0004.23,0001.69
2022-12-17 02:30:00,,0822.4,4.95,0.00,21.4,19.9,00.0,30.3,23.0,03.6,0000.0,0002.09,0004.66,0001.69
2022-12-17 02:31:00,,0822.4,5.04,0.00,21.4,19.8,00.0,30.3,23.0,03.6,0000.0,0002.07,0004.63,0001.68
2022-12-17 02:32:00,,0822.4,4.97,0.00,21.3,19.8,00.0,30.3,23.0,03.5,0000.0,0002.03,0004.54,0001.67
2022-12-17 02:33:00,,0822.4,4.99,0.00,21.4,20.7,00.0,30.2,23.2,03.5,0000.0,0002.05,0004.59,0001.66
2022-12-17 02:34:00,,0822.4,5.00,0.00,21.5,21.8,00.0,30.2,23.4,03.5,0000.0,0002.08,0004.63,0001.68
2022-12-17 02:35:00,,0822.4,5.01,0.00,21.7,22.2,00.0,30.3,23.7,03.5,0000.0,0002.08,0005.22,0001.68
2022-12-17 02:36:00,,0822.5,5.00,0.00,21.7,21.8,00.0,30.3,23.6,03.5,0000.0,0002.08,0006.24,0001.69
2022-12-17 02:37:00,,0822.4,4.99,0.00,21.7,21.2,00.0,30.4,23.5,03.5,0000.0,0002.06,0006.25,0001.69
2022-12-17 02:38:00,,0822.4,4.98,0.00,21.6,20.8,00.0,30.4,23.4,03.4,0000.0,0002.04,0006.23,0001.68
2022-12-17 02:39:00,,0822.4,5.04,0.00,21.6,20.4,00.0,30.4,23.3,03.4,0000.0,0002.00,0006.16,0001.66
2022-12-17 02:40:00,,0822.4,4.97,0.00,21.6,20.2,00.0,30.4,23.2,03.5,0000.0,0001.96,0004.97,0001.64
2022-12-17 02:41:00,,0822.4,5.02,0.00,21.5,20.0,00.0,30.4,23.1,03.5,0000.0,0001.92,0004.37,0001.60
2022-12-17 02:42:00,,0822.4,4.98,0.00,21.5,19.8,00.0,30.4,23.1,03.5,0000.0,0001.89,0004.31,0001.56
2022-12-17 02:43:00,,0822.4,4.99,0.00,21.4,19.7,00.0,30.4,23.0,03.6,0000.0,0001.89,0004.37,0001.53
2022-12-17 02:44:00,,0822.4,5.01,0.00,21.4,19.9,00.0,30.3,23.0,03.6,0000.0,0001.85,0004.32,0001.50
2022-12-17 02:45:00,,0822.4,4.99,0.00,21.5,21.0,00.0,30.3,23.3,03.6,0000.0,0001.84,0004.28,0001.49
2022-12-17 02:46:00,,0822.3,5.00,0.00,21.6,21.7,00.0,30.3,23.5,03.5,0000.0,0001.81,0003.69,0001.47
2022-12-17 02:47:00,,0822.4,4.99,0.00,21.6,21.4,00.0,30.4,23.5,03.5,0000.0,0001.81,0002.85,0001.45
2022-12-17 02:48:00,,0822.3,5.02,0.00,21.6,21.0,00.0,30.4,23.4,03.5,0000.0,0001.79,0002.73,0001.44
2022-12-17 02:49:00,,0822.2,5.00,0.00,21.6,20.6,00.0,30.4,23.3,03.5,0000.0,0001.84,0002.88,0001.44
2022-12-17 02:50:00,,0822.2,4.97,0.00,21.5,20.3,00.0,30.4,23.2,03.4,0000.0,0001.83,0002.85,0001.44
2022-12-17 02:51:00,,0822.2,5.04,0.00,21.5,20.0,00.0,30.4,23.1,03.4,0000.0,0001.82,0002.83,0001.43
2022-12-17 02:52:00,,0822.2,4.96,0.00,21.5,19.9,00.0,30.4,23.1,03.4,0000.0,0001.84,0002.86,0001.43
2022-12-17 02:53:00,,0822.2,5.03,0.00,21.4,19.7,00.0,30.4,23.0,03.5,0000.0,0001.85,0002.90,0001.43
2022-12-17 02:54:00,,0822.2,4.96,0.00,21.4,19.8,00.0,30.3,23.0,03.5,0000.0,0001.83,0002.85,0001.44
2022-12-17 02:55:00,,0822.2,5.04,0.00,21.5,20.8,00.0,30.3,23.2,03.6,0000.0,0001.84,0002.84,0001.44
2022-12-17 02:56:00,,0822.2,4.96,0.00,21.6,21.8,00.0,30.3,23.5,03.5,0000.0,0001.84,0002.96,0001.42
2022-12-17 02:57:00,,0822.2,5.00,0.00,21.7,22.1,00.0,30.3,23.7,03.5,0000.0,0001.85,0003.00,0001.42
2022-12-17 02:58:00,,0822.2,5.05,0.00,21.7,21.6,00.0,30.4,23.6,03.5,0000.0,0001.86,0002.92,0001.41
2022-12-17 02:59:00,,0822.2,4.98,0.00,21.7,21.1,00.0,30.4,23.4,03.5,0000.0,0001.85,0002.93,0001.40
